Wind_Speed
7 7 7 6 6 5 5 5 5 5 5 5 5 4 3 3 2 2 2 2 2 1 1 1 2 2 3 3 4 4 5 6 6 5 6 6 6 6 6 6 6 6 6 7 7 8 9 9 10 10 11 11 12 12 13 13 14 15 15 16 16 16 17 17 18 18 19 20 21
7 7 7 6 6 5 5 5 5 5 5 5 5 4 3 3 2 2 2 2 1 1 0 1 1 2 3 3 4 5 5 6 6 6 6 6 6 6 6 7 7 7 7 7 7 8 8 9 9 10 10 11 12 12 12 13 13 14 15 16 16 17 17 17 17 18 19 20 21
7 7 7 6 6 6 5 5 5 5 5 5 5 4 4 3 2 1 1 1 1 1 0 0 1 2 2 3 4 4 5 5 6 7 7 6 7 7 7 7 7 8 7 7 7 7 7 8 8 9 10 11 11 12 12 13 13 14 15 15 16 17 17 17 17 18 18 19 20
7 7 7 6 6 6 5 5 5 5 5 5 5 4 4 3 3 2 1 1 1 1 1 0 1 1 2 2 3 4 4 5 6 7 7 7 7 7 7 7 8 8 8 8 7 7 7 7 7 8 9 10 11 11 12 12 13 14 14 15 16 17 17 17 17 18 18 19 20
7 7 7 6 6 6 6 5 5 5 5 5 5 4 4 4 3 2 1 1 1 1 1 1 1 1 1 2 2 3 4 4 5 6 7 8 8 8 8 8 8 8 8 8 8 7 7 6 6 7 8 9 10 11 12 12 13 13 14 15 16 16 17 17 17 17 18 19 20
7 7 7 6 6 6 6 6 5 5 5 4 4 4 4 4 4 3 2 1 1 1 1 1 1 1 1 1 2 2 3 3 4 5 6 7 8 8 8 8 8 8 8 8 8 7 7 6 6 6 6 8 9 10 11 11 12 13 14 14 15 16 16 17 17 18 18 19 20
8 7 7 7 6 6 6 6 5 5 5 4 4 4 4 4 4 3 2 1 0 1 1 1 1 1 1 1 2 2 2 3 3 4 5 5 6 7 8 8 8 8 8 8 8 7 7 6 5 5 5 6 8 9 10 11 11 12 13 14 15 16 16 17 17 18 18 19 20
8 8 7 7 7 7 6 6 6 5 5 4 4 4 4 4 4 4 3 2 1 1 1 1 1 1 1 1 2 2 2 2 3 3 4 5 5 6 7 8 8 8 8 8 8 7 7 6 5 5 4 5 6 8 9 10 10 12 13 14 14 15 16 17 18 18 19 19 20
8 8 8 8 8 7 7 6 6 5 5 5 4 4 4 4 4 4 3 2 1 1 1 1 1 0 1 1 2 2 2 2 3 3 4 4 5 6 7 7 8 8 8 8 7 7 7 6 6 5 4 4 5 6 8 9 10 11 12 13 14 15 16 16 17 18 19 19 20
9 9 8 8 8 8 7 7 6 6 5 5 4 4 4 4 4 4 3 3 2 1 1 1 1 0 1 1 1 2 2 2 3 3 4 4 5 5 6 7 7 7 7 7 7 7 7 7 6 5 4 4 4 5 7 8 9 10 11 12 13 14 15 16 17 17 18 19 20
9 9 9 9 8 8 8 7 6 6 5 5 4 4 4 4 4 4 3 3 2 2 2 1 1 1 0 1 1 2 2 2 3 3 3 4 4 5 6 6 7 7 7 7 7 7 7 7 7 6 5 4 4 5 6 7 8 10 11 11 12 13 14 15 16 17 18 19 20
10 10 10 9 9 9 8 7 7 6 6 5 5 4 4 4 4 4 4 3 3 2 2 2 1 1 0 0 1 1 2 2 2 3 3 3 4 5 5 6 6 6 6 7 7 7 7 7 7 6 5 4 4 4 5 6 8 9 10 11 12 12 13 14 15 17 17 18 19
11 10 10 10 10 9 9 8 7 7 6 6 5 4 4 4 4 4 4 3 3 2 2 2 2 1 1 0 1 1 2 2 2 2 3 3 4 4 5 5 6 6 6 6 7 7 8 7 7 7 6 5 5 5 5 6 7 8 9 10 11 12 13 14 15 16 17 17 18
11 11 11 10 10 10 9 9 8 7 6 6 5 5 4 4 4 4 4 4 3 3 2 2 2 1 1 0 0 1 1 1 2 2 2 3 3 4 4 5 5 6 6 6 7 7 8 8 8 7 7 6 5 5 5 6 7 8 9 10 12 12 13 14 15 15 16 17 18
11 11 11 11 11 10 10 9 8 7 7 6 5 5 5 5 4 4 4 4 4 3 3 2 2 1 1 1 0 1 1 1 1 1 2 2 3 3 4 4 5 5 6 6 7 7 8 8 8 8 7 7 6 6 5 6 7 8 9 10 11 12 13 14 14 15 16 17 18
12 12 12 11 11 11 10 10 9 8 7 6 6 5 5 5 5 5 4 4 4 3 3 2 2 2 1 1 1 1 1 1 1 1 1 2 2 3 3 4 4 5 6 6 7 7 8 8 8 8 8 8 7 7 6 6 7 8 9 10 11 12 13 13 14 15 16 17 17
12 12 12 12 12 11 11 10 9 9 7 7 6 5 5 5 5 5 4 4 4 3 3 2 2 2 1 1 1 1 1 1 1 1 1 1 2 2 3 3 4 4 5 6 7 7 8 8 8 9 9 8 8 7 7 7 8 8 9 10 11 11 12 13 14 14 15 16 17
12 12 12 12 12 12 11 11 10 9 8 7 6 6 5 5 5 5 4 4 4 3 3 2 2 2 2 1 1 1 1 1 1 1 1 1 2 2 2 3 3 4 4 5 6 7 7 8 8 9 9 9 9 9 8 8 8 9 9 10 11 11 12 13 13 14 15 16 16
12 12 12 12 12 12 11 11 11 10 9 8 7 6 5 5 5 4 4 4 4 3 3 2 2 2 2 1 1 1 1 1 1 1 1 1 1 2 2 2 2 3 4 4 5 6 7 7 8 8 9 9 9 9 9 9 9 9 9 10 10 11 12 12 13 14 14 15 16
13 13 12 12 12 12 12 11 11 10 9 8 7 6 6 5 5 4 4 4 4 3 3 3 2 2 2 2 1 1 1 1 1 1 1 1 1 1 1 2 2 2 3 3 4 5 6 6 7 8 9 9 9 9 9 9 9 9 9 10 10 11 11 12 13 13 14 14 15
13 13 13 13 13 12 12 12 11 11 10 9 8 7 6 5 5 4 4 4 4 3 3 3 3 2 2 2 1 1 1 1 1 1 1 1 1 1 1 1 2 2 2 3 3 4 5 5 6 7 7 8 8 8 9 9 9 9 9 10 10 11 11 12 12 12 13 14 14
13 13 13 13 13 13 12 12 12 11 10 10 9 8 7 6 5 5 4 4 4 4 3 3 3 2 2 2 2 1 1 1 1 1 1 1 1 1 1 1 2 2 2 2 3 3 4 4 5 6 6 7 7 8 8 8 8 9 9 10 10 10 11 11 11 12 12 13 14
14 14 14 14 14 13 13 12 12 11 11 10 9 8 7 6 6 5 5 5 4 4 4 3 3 3 2 2 2 1 1 1 1 1 1 1 0 0 1 1 1 2 2 2 2 2 3 3 4 4 5 6 6 7 7 8 8 8 9 9 9 10 10 11 11 11 12 12 13
15 15 15 15 14 14 13 13 12 12 11 11 10 9 8 7 6 6 5 5 5 4 4 4 3 3 3 2 2 2 1 1 1 1 1 1 0 0 1 1 1 1 2 2 2 2 2 2 3 3 4 4 5 5 6 7 7 8 8 8 9 9 10 10 10 11 11 12 12
16 16 16 15 15 14 14 13 13 12 12 11 10 9 9 8 7 6 6 5 5 5 4 4 3 3 3 2 2 2 2 1 1 1 1 1 1 0 0 1 1 1 1 1 1 1 1 2 2 2 3 3 4 4 5 6 7 7 8 8 8 9 9 9 10 10 10 11 12
17 17 17 16 15 15 14 14 13 13 12 12 11 10 9 8 8 7 7 6 5 5 4 4 4 3 3 3 3 2 2 2 2 2 1 1 1 1 0 0 0 1 1 1 1 1 1 1 1 2 2 3 3 4 5 6 6 7 8 8 8 9 9 9 9 10 10 11 11
18 18 17 16 16 15 15 14 14 13 13 12 11 11 10 9 8 8 7 6 6 5 5 4 4 4 3 3 3 3 2 2 2 2 2 2 1 1 1 1 0 0 1 1 1 1 1 1 2 2 2 3 3 4 5 6 6 7 8 8 8 9 9 9 9 10 10 11 11
19 19 18 17 16 16 15 15 14 14 13 12 12 11 10 10 9 8 8 7 6 6 5 5 4 4 4 4 3 3 3 3 2 2 2 2 2 2 1 1 2 1 1 1 1 0 1 1 2 2 3 3 4 4 5 6 6 7 7 8 8 8 9 9 10 10 10 10 11
20 19 19 18 17 16 16 15 15 14 13 13 12 12 11 10 9 9 8 8 7 7 6 5 5 4 4 4 4 4 3 3 3 3 2 2 2 2 2 2 2 2 2 1 1 0 1 1 2 2 3 3 4 5 5 6 7 7 7 8 8 8 9 10 10 11 11 10 11
21 20 19 18 17 17 16 16 15 14 14 13 13 12 11 11 10 9 9 8 8 7 7 6 6 5 5 4 4 4 4 3 3 3 3 3 3 2 2 3 3 3 2 1 1 1 1 1 2 2 3 3 4 5 5 6 6 7 7 7 8 8 9 10 10 11 11 11 11
22 21 20 19 18 17 17 16 15 15 14 14 13 13 12 11 11 10 9 9 8 8 8 7 6 6 5 5 5 4 4 4 4 4 4 3 3 3 3 3 3 3 3 2 2 1 1 1 2 2 3 3 4 5 5 5 6 6 6 7 7 8 9 10 10 11 11 11 11
24 23 21 20 18 18 17 17 16 16 15 14 14 13 12 12 11 11 10 9 9 9 8 8 7 6 6 6 5 5 5 5 4 4 4 4 4 3 3 3 4 3 3 3 2 2 2 1 2 2 2 3 4 4 4 5 5 5 6 7 7 8 9 9 10 10 11 11 11
25 24 22 20 19 18 18 17 17 16 15 15 14 13 13 12 12 11 11 10 10 9 9 8 8 7 6 6 6 6 5 5 5 5 5 4 4 4 4 4 4 4 4 3 3 3 2 2 2 2 2 3 3 4 4 4 4 5 5 6 7 8 8 9 10 10 11 11 12
27 25 23 21 20 19 18 18 17 17 16 15 15 14 13 13 13 12 11 11 10 10 9 9 8 8 7 7 6 6 6 6 5 5 5 5 5 5 4 4 4 4 4 4 3 3 3 3 2 2 2 3 3 3 4 4 4 5 5 6 7 7 8 9 10 10 11 11 12
27 27 25 22 21 20 19 18 18 17 17 16 15 15 14 14 13 12 12 11 11 10 10 10 9 8 8 7 7 7 6 6 6 6 6 6 5 5 5 5 5 5 5 4 4 4 3 3 3 3 3 3 3 3 4 4 4 4 5 6 6 7 8 9 9 10 11 11 11
28 27 26 23 22 20 20 19 18 18 17 16 15 15 14 14 13 13 12 12 11 11 11 10 10 9 8 8 8 7 7 7 7 7 7 6 6 6 6 6 6 6 5 5 5 4 4 4 3 3 3 3 3 3 4 4 4 4 5 5 6 7 7 8 9 9 10 10 11
27 28 27 24 23 21 20 19 19 18 17 16 16 15 15 14 14 13 13 13 12 11 11 11 10 9 9 9 8 8 8 8 7 7 7 7 7 7 7 6 6 6 6 6 5 5 4 4 4 3 3 3 3 4 4 4 4 4 4 5 6 6 7 8 8 9 9 10 10
27 28 27 25 23 22 20 20 19 18 17 16 16 15 15 15 14 14 13 13 12 12 11 11 10 10 10 9 9 9 8 8 8 8 8 8 8 8 8 7 7 7 6 6 6 5 5 4 4 4 4 3 4 4 4 4 3 4 4 5 5 6 6 7 8 8 9 9 9
26 28 28 26 24 22 21 20 19 18 17 16 16 15 15 15 15 14 14 13 13 12 12 11 11 11 10 10 10 9 9 9 9 9 9 9 9 9 8 8 7 7 7 6 6 5 5 5 4 4 4 4 4 4 4 3 3 3 4 4 5 5 6 6 7 7 8 8 9
25 27 28 27 25 23 21 20 19 17 17 16 16 16 16 15 15 14 14 13 13 13 12 12 12 11 11 10 10 10 10 10 10 10 10 10 10 9 9 8 8 7 7 7 6 6 5 5 5 4 4 3 3 3 3 3 3 3 3 4 4 5 5 6 6 7 8 8 8
23 27 28 28 26 23 21 20 18 17 16 16 16 16 15 15 15 15 14 14 14 14 13 13 12 12 12 11 11 11 11 11 11 11 11 11 11 10 10 9 8 8 7 7 6 6 6 5 5 4 4 3 3 3 3 3 3 3 3 3 4 5 5 6 6 6 7 7 8
Wind_Direction
244 245 246 246 249 252 254 257 258 259 260 260 258 254 246 234 215 192 183 185 189 200 243 268 274 273 273 279 288 297 304 308 312 313 314 315 317 320 326 333 339 346 356 8 16 19 19 17 16 15 17 17 19 19 19 19 20 19 17 18 18 17 16 14 14 14 15 15 15
245 245 246 248 249 251 253 256 259 263 267 269 268 263 257 248 232 203 181 176 167 158 175 266 270 270 270 272 277 284 293 300 305 306 307 306 307 309 314 320 328 335 344 355 5 11 15 16 15 16 18 20 21 21 22 22 22 22 21 21 20 19 17 17 16 16 17 18 18
245 246 247 249 251 253 254 257 260 265 269 274 274 272 269 263 253 229 195 170 152 133 113 273 283 278 273 269 269 274 282 291 297 299 300 300 302 304 307 314 320 327 335 344 352 1 8 12 13 16 20 23 24 24 24 24 25 25 25 24 23 21 20 19 18 18 18 19 20
246 247 249 250 252 253 255 257 259 263 267 271 273 273 272 269 265 253 226 172 138 119 102 47 321 301 285 275 270 270 275 282 290 295 297 299 300 302 305 310 316 323 330 336 343 350 358 6 9 14 20 24 27 27 27 26 27 28 28 27 26 24 22 20 19 19 19 21 21
247 248 249 251 253 254 256 257 259 261 264 267 268 269 270 269 268 263 246 190 136 116 96 60 7 334 315 299 284 278 279 281 288 293 297 301 303 305 307 311 316 322 328 333 337 342 349 357 3 10 18 25 29 31 31 29 29 31 31 31 29 27 25 22 21 20 21 22 22
248 249 251 253 255 257 259 260 260 261 263 264 266 267 268 268 268 264 256 227 139 115 104 78 30 358 341 328 313 301 296 295 295 298 301 304 308 311 313 316 322 326 330 333 335 338 341 347 354 5 16 24 31 34 35 34 33 33 34 33 32 31 28 25 23 23 23 23 23
250 251 253 256 258 261 262 263 264 264 266 266 267 267 266 265 265 263 259 253 183 129 118 99 60 17 1 353 343 331 319 315 311 311 312 313 316 319 321 324 328 332 334 335 336 336 337 339 343 357 15 26 33 38 39 39 39 37 36 35 35 33 31 29 26 26 26 25 25
253 254 255 257 261 263 265 265 265 266 266 267 267 266 264 264 262 261 260 258 227 158 134 122 94 35 13 5 3 354 345 339 336 334 333 332 330 329 329 330 333 335 337 337 337 337 336 335 336 346 9 26 36 42 44 45 45 43 40 38 37 36 34 32 30 29 28 28 27
254 255 257 259 261 264 265 266 266 266 267 267 266 263 263 262 261 259 259 256 241 197 158 143 121 57 16 10 8 4 2 1 1 358 354 350 347 342 339 337 338 339 340 339 339 339 337 333 331 338 360 22 36 45 50 50 50 48 44 41 39 38 36 35 33 32 31 30 29
255 256 257 260 262 263 265 266 267 267 267 267 264 262 259 258 257 255 254 252 243 219 181 162 148 106 26 4 3 4 7 8 11 12 8 3 357 353 348 345 345 344 344 342 342 342 340 335 330 332 349 16 35 47 53 54 54 51 48 44 41 39 38 37 35 34 33 32 31
256 257 258 259 262 264 266 268 268 269 269 268 264 260 256 254 252 251 251 249 242 222 196 177 165 151 88 2 354 355 2 8 12 14 15 10 4 359 356 353 351 350 349 347 347 346 344 339 332 331 341 8 31 47 54 57 56 54 52 47 43 40 39 38 37 35 34 32 32
257 258 259 260 262 264 266 267 268 268 269 268 265 259 254 251 250 250 250 246 239 226 207 192 181 176 171 322 344 346 354 2 7 11 14 12 8 3 0 358 356 355 354 353 353 351 348 345 338 334 340 0 25 44 53 57 58 57 55 51 46 42 40 38 37 35 34 33 32
256 257 258 260 262 264 265 267 267 267 267 267 264 258 254 251 251 250 247 244 237 227 214 199 192 188 190 242 325 337 346 350 356 3 11 13 11 6 3 1 0 1 1 1 359 356 354 351 346 342 344 358 18 35 47 54 57 57 55 53 48 43 40 38 37 35 34 33 33
256 257 258 260 262 263 265 266 266 266 266 266 263 258 252 248 248 247 245 241 235 227 215 202 195 195 196 218 310 325 329 333 343 356 9 15 12 8 4 3 3 5 7 6 4 1 360 358 354 351 352 359 12 26 38 47 52 54 53 52 47 43 39 38 36 35 34 33 33
256 257 258 260 262 263 265 265 265 265 264 263 261 256 251 246 246 245 243 240 234 226 213 203 194 193 197 208 253 292 303 315 325 350 9 18 16 10 6 4 4 6 9 9 7 5 3 2 0 359 360 4 9 17 28 40 47 49 49 48 45 42 38 37 36 34 33 32 33
255 256 257 259 261 263 265 265 266 265 263 261 260 256 250 246 244 243 240 236 231 224 214 201 192 191 197 211 231 260 288 301 313 332 4 20 19 14 9 5 7 8 10 9 8 6 5 4 4 4 5 7 9 12 18 31 40 43 43 43 43 40 38 36 35 33 32 32 31
254 255 257 258 260 262 264 265 266 265 264 261 258 255 250 245 243 240 238 233 229 221 212 202 197 193 195 204 222 248 277 292 299 312 351 21 24 19 14 9 11 10 11 9 8 6 4 4 4 6 8 11 11 11 13 22 32 37 38 38 38 37 35 35 33 33 32 31 31
253 254 256 257 259 261 263 265 266 266 265 262 259 255 251 247 244 241 237 233 227 219 208 201 197 194 195 200 216 234 267 291 299 308 344 16 25 21 17 15 17 16 15 11 8 4 2 2 3 6 9 12 13 13 13 16 24 30 32 32 32 32 31 31 31 31 30 30 30
253 253 254 256 258 260 262 264 265 266 266 264 262 258 255 251 247 244 239 234 228 220 210 200 195 194 196 199 207 227 258 291 305 314 335 13 21 20 17 21 24 25 22 16 9 3 0 0 2 5 7 10 13 15 15 15 19 24 27 28 28 27 27 26 27 27 28 28 29
253 253 254 255 256 258 260 262 263 265 266 265 264 262 258 254 251 245 240 234 229 222 214 204 196 192 193 201 202 210 238 279 299 310 323 352 15 19 22 30 34 34 28 21 11 4 360 360 2 4 6 8 11 13 14 15 17 20 23 24 24 24 23 22 22 22 24 25 26
254 253 253 253 254 255 258 259 261 263 264 265 264 263 261 257 253 247 241 236 231 224 215 208 198 194 193 196 197 198 213 256 285 296 310 332 5 17 25 32 37 38 34 26 14 5 360 359 1 4 6 7 9 11 13 15 17 19 21 22 21 21 20 19 18 19 20 22 23
256 254 252 252 253 254 255 257 259 261 262 263 264 263 261 259 255 249 244 239 234 226 217 209 202 196 195 194 196 195 202 224 262 277 284 307 358 19 25 31 35 38 36 26 15 5 360 358 0 3 5 7 8 11 13 15 17 19 20 20 19 19 18 17 16 17 18 20 21
257 255 253 252 252 252 253 255 257 258 260 262 262 262 261 259 256 251 247 242 235 227 220 212 205 199 196 199 201 199 201 212 241 255 255 262 312 29 32 28 29 31 29 20 9 2 358 358 1 4 6 7 9 12 14 16 19 21 21 21 20 19 18 17 17 17 18 20 21
258 255 253 252 251 251 252 253 254 256 257 259 260 261 260 259 256 252 248 244 238 230 222 214 205 200 199 202 205 206 205 211 229 237 236 229 224 86 46 30 25 21 15 8 1 356 357 359 6 8 10 10 12 14 17 20 22 24 25 25 23 23 22 20 20 20 21 21 22
258 256 254 252 251 250 250 251 252 254 255 257 258 259 259 258 256 254 251 247 241 234 227 217 207 201 199 200 206 209 209 213 223 226 224 214 202 170 72 37 20 11 1 351 347 353 1 10 18 22 21 21 21 22 24 27 28 30 30 30 29 29 28 27 26 26 26 25 25
257 256 255 253 251 250 249 250 250 251 253 255 256 257 258 257 256 254 252 248 244 239 231 221 211 203 200 202 206 208 210 213 221 223 219 207 190 170 132 64 29 349 334 329 337 351 15 37 44 46 44 41 38 39 39 39 38 37 37 36 36 36 37 38 37 35 33 31 30
256 256 256 254 252 250 249 248 249 249 251 252 254 255 256 256 255 254 251 249 246 242 235 227 217 209 205 205 208 212 212 214 219 222 219 209 190 168 152 162 183 240 282 298 317 345 40 66 69 71 67 63 59 56 53 51 48 46 44 43 42 43 45 46 46 45 41 39 35
254 256 256 255 252 250 249 248 248 248 249 251 252 253 254 255 254 252 251 249 247 244 239 232 224 217 211 210 213 215 216 216 221 223 223 214 199 181 175 181 196 215 237 263 279 322 78 85 85 81 78 74 71 67 62 59 56 53 52 50 49 49 50 52 52 51 49 46 42
252 254 255 254 252 250 249 247 247 247 248 249 250 252 252 253 252 251 250 248 247 245 241 236 229 223 217 214 216 218 218 218 221 224 224 217 205 192 186 192 201 211 225 241 243 216 115 97 91 86 83 78 74 69 66 62 60 58 57 55 54 53 54 54 55 54 53 52 49
249 251 253 253 252 250 248 247 247 246 247 247 248 249 250 250 250 250 248 246 245 243 242 238 232 225 219 217 217 218 218 218 222 224 222 218 208 196 194 198 203 208 211 216 218 198 149 113 100 92 87 82 75 71 67 64 61 60 59 57 56 56 56 56 56 56 56 54 54
246 248 250 251 250 249 247 246 246 245 245 245 246 247 248 249 249 247 246 245 244 243 242 240 234 228 222 219 219 218 218 219 220 221 221 218 210 201 198 200 202 202 202 203 203 195 173 136 113 102 93 86 79 74 70 66 64 62 60 59 58 57 56 56 56 56 56 56 56
243 246 248 248 248 247 246 245 244 243 244 244 245 245 246 247 246 246 244 243 243 243 242 240 236 230 225 222 220 219 219 219 219 220 220 218 213 207 204 202 200 199 196 195 196 193 179 159 135 117 104 95 87 81 75 71 68 65 62 60 58 56 55 55 55 55 54 54 54
240 242 244 246 246 245 244 243 242 242 242 242 243 244 244 244 244 244 242 242 241 241 240 238 235 230 225 221 219 219 218 218 218 219 220 219 216 213 207 201 198 196 195 194 194 191 184 171 153 135 119 108 99 91 85 78 73 69 64 60 57 55 53 52 52 51 51 50 50
236 239 241 243 243 243 243 241 241 240 240 241 241 242 242 242 242 242 241 240 239 239 238 236 233 229 224 221 218 217 217 217 217 218 219 220 218 215 208 200 195 194 195 194 194 190 184 175 164 151 137 122 111 100 91 84 77 71 65 61 57 55 52 50 49 47 47 46 45
233 236 238 240 241 241 241 241 239 239 238 239 239 240 240 240 241 240 240 238 238 237 236 235 232 229 225 222 219 217 216 216 216 217 218 219 218 215 209 201 193 192 193 194 192 190 185 179 170 161 149 134 121 108 97 88 78 72 66 62 58 55 52 50 48 46 45 43 42
231 234 236 238 239 240 240 240 239 237 237 237 237 238 238 239 239 238 237 236 236 235 234 233 231 228 225 222 220 218 216 215 215 215 217 217 217 214 209 202 195 191 191 192 190 188 185 180 175 167 158 145 130 115 103 91 82 75 69 65 61 57 53 50 48 46 44 43 41
229 232 234 236 238 239 240 239 238 237 236 235 236 237 237 237 237 236 235 235 234 233 233 231 229 227 224 221 219 217 216 216 215 214 215 216 215 213 210 204 197 193 191 190 188 185 183 180 177 172 164 151 136 122 109 97 87 80 74 68 64 60 56 52 49 47 45 43 41
227 230 232 234 236 238 239 239 238 236 235 234 235 235 236 236 235 235 234 234 233 232 232 230 228 225 223 221 218 217 216 216 214 214 213 214 215 214 210 206 199 195 192 190 186 184 183 180 178 175 168 156 141 127 114 102 92 84 79 73 68 63 59 55 51 48 45 43 41
227 228 230 232 234 236 238 238 237 236 234 233 233 233 234 233 233 233 233 232 231 230 229 228 226 224 222 219 218 216 215 215 214 213 213 212 214 214 210 205 201 197 194 190 186 184 183 181 180 176 171 161 147 133 120 107 96 88 84 78 73 67 62 57 52 49 46 43 41
227 227 229 231 233 235 236 237 236 235 233 232 232 232 232 232 232 231 230 230 228 227 226 224 223 222 221 219 217 215 215 214 214 213 212 212 213 213 210 205 202 199 195 191 187 184 182 181 180 177 171 161 149 136 123 111 99 92 87 82 76 70 64 58 52 48 45 43 41
227 226 227 229 231 233 235 235 234 232 231 230 230 231 230 230 230 229 228 227 226 224 223 222 221 220 219 217 216 215 214 214 212 212 212 211 211 210 208 205 202 199 197 193 188 185 183 182 179 176 169 159 148 136 125 113 101 96 91 84 77 69 64 59 53 47 43 40 39
Height
1452 1452 1452 1452 1453 1453 1453 1453 1453 1453 1453 1453 1453 1453 1453 1453 1453 1452 1452 1452 1452 1452 1452 1453 1453 1453 1453 1453 1453 1453 1453 1453 1452 1452 1452 1452 1452 1452 1452 1451 1451 1450 1450 1449 1448 1447 1447 1446 1445 1444 1443 1442 1442 1441 1440 1439 1438 1437 1437 1436 1435 1434 1432 1432 1431 1430 1429 1427 1426
1452 1452 1452 1452 1452 1452 1452 1452 1452 1453 1453 1453 1453 1453 1453 1453 1452 1452 1452 1452 1451 1452 1452 1452 1452 1452 1452 1453 1453 1452 1452 1452 1452 1452 1452 1452 1452 1452 1451 1451 1451 1450 1449 1449 1448 1447 1447 1446 1445 1444 1443 1442 1442 1441 1440 1439 1438 1437 1437 1436 1435 1434 1432 1432 1431 1430 1428 1427 1426
1451 1451 1451 1452 1452 1452 1452 1452 1452 1452 1452 1452 1452 1452 1452 1452 1452 1452 1452 1451 1451 1451 1451 1452 1452 1452 1452 1452 1452 1452 1452 1452 1452 1452 1451 1451 1451 1451 1451 1451 1450 1450 1449 1449 1448 1447 1447 1446 1445 1444 1443 1442 1442 1441 1440 1439 1438 1437 1437 1436 1435 1434 1432 1432 1431 1430 1428 1427 1426
1450 1451 1451 1451 1451 1452 1452 1452 1452 1452 1452 1452 1452 1452 1452 1452 1452 1452 1451 1451 1451 1450 1451 1451 1451 1451 1452 1452 1452 1452 1452 1451 1451 1451 1451 1451 1450 1450 1450 1450 1450 1449 1449 1448 1448 1447 1447 1446 1445 1444 1443 1443 1442 1441 1440 1439 1438 1437 1437 1436 1435 1434 1433 1432 1431 1429 1428 1427 1426
1450 1450 1450 1450 1451 1451 1451 1451 1451 1452 1452 1452 1452 1452 1452 1452 1452 1451 1451 1451 1450 1450 1450 1450 1451 1451 1451 1451 1451 1451 1451 1451 1451 1450 1450 1450 1450 1450 1449 1449 1449 1449 1448 1448 1447 1447 1447 1446 1445 1444 1444 1443 1442 1441 1440 1439 1439 1438 1437 1436 1435 1434 1433 1432 1431 1430 1428 1427 1426
1449 1449 1449 1450 1450 1450 1451 1451 1451 1451 1451 1451 1451 1451 1451 1451 1451 1451 1451 1450 1450 1450 1450 1450 1450 1450 1450 1451 1451 1450 1450 1450 1450 1450 1450 1449 1449 1449 1449 1448 1448 1448 1448 1447 1447 1447 1446 1446 1445 1444 1444 1443 1442 1441 1440 1440 1439 1438 1437 1436 1435 1434 1433 1432 1431 1430 1428 1427 1426
1448 1448 1449 1449 1449 1450 1450 1450 1450 1451 1451 1451 1451 1451 1451 1451 1451 1450 1450 1450 1449 1449 1449 1449 1449 1450 1450 1450 1450 1450 1450 1450 1450 1449 1449 1449 1449 1448 1448 1448 1447 1447 1447 1447 1447 1446 1446 1446 1445 1444 1444 1443 1442 1441 1441 1440 1439 1438 1437 1436 1435 1434 1433 1432 1431 1430 1429 1427 1427
1447 1448 1448 1448 1449 1449 1449 1450 1450 1450 1450 1450 1450 1450 1450 1450 1450 1450 1450 1449 1449 1449 1449 1449 1449 1449 1449 1449 1449 1449 1449 1449 1449 1449 1449 1449 1448 1448 1448 1447 1447 1447 1447 1446 1446 1446 1445 1445 1445 1444 1443 1443 1442 1441 1441 1440 1439 1438 1437 1436 1435 1434 1433 1432 1431 1430 1429 1428 1427
1447 1447 1447 1448 1448 1448 1449 1449 1449 1449 1449 1450 1450 1450 1450 1450 1450 1449 1449 1449 1449 1448 1448 1448 1448 1448 1449 1449 1449 1449 1449 1449 1449 1448 1448 1448 1448 1448 1447 1447 1447 1446 1446 1446 1446 1445 1445 1445 1444 1444 1443 1443 1442 1441 1441 1440 1439 1438 1437 1437 1436 1435 1434 1433 1432 1431 1429 1428 1427
1446 1446 1447 1447 1447 1448 1448 1448 1448 1449 1449 1449 1449 1449 1449 1449 1449 1449 1449 1449 1448 1448 1448 1448 1448 1448 1448 1448 1448 1448 1448 1448 1448 1448 1448 1448 1447 1447 1447 1447 1446 1446 1446 1445 1445 1445 1445 1444 1444 1444 1443 1442 1442 1441 1440 1440 1439 1438 1437 1437 1436 1435 1434 1433 1432 1431 1430 1429 1427
1445 1446 1446 1446 1447 1447 1447 1448 1448 1448 1448 1448 1448 1449 1449 1449 1448 1448 1448 1448 1448 1448 1447 1447 1447 1447 1447 1448 1448 1448 1448 1448 1448 1448 1448 1447 1447 1447 1447 1447 1446 1446 1445 1445 1445 1444 1444 1444 1444 1443 1443 1442 1442 1441 1440 1440 1439 1438 1437 1437 1436 1435 1434 1433 1432 1431 1430 1429 1428
1444 1445 1445 1446 1446 1446 1447 1447 1447 1447 1447 1448 1448 1448 1448 1448 1448 1448 1448 1447 1447 1447 1447 1447 1447 1447 1447 1447 1447 1447 1447 1447 1447 1447 1447 1447 1447 1447 1447 1446 1446 1446 1445 1445 1444 1444 1444 1444 1443 1443 1443 1442 1442 1441 1440 1440 1439 1438 1437 1437 1436 1435 1434 1433 1432 1431 1430 1429 1428
1444 1444 1444 1445 1445 1445 1446 1446 1447 1447 1447 1447 1447 1447 1447 1447 1447 1447 1447 1447 1447 1447 1447 1447 1447 1447 1447 1447 1447 1447 1447 1447 1447 1447 1447 1447 1447 1446 1446 1446 1446 1445 1445 1445 1444 1444 1444 1443 1443 1443 1442 1442 1442 1441 1440 1439 1439 1438 1437 1437 1436 1435 1435 1434 1433 1432 1431 1430 1429
1443 1443 1443 1444 1444 1445 1445 1445 1446 1446 1446 1447 1447 1447 1447 1447 1447 1447 1447 1447 1446 1446 1446 1446 1446 1446 1446 1446 1446 1447 1447 1447 1447 1447 1446 1446 1446 1446 1446 1446 1446 1445 1445 1444 1444 1444 1443 1443 1443 1442 1442 1442 1442 1441 1440 1440 1439 1438 1437 1437 1436 1436 1435 1434 1433 1432 1431 1430 1429
1442 1442 1443 1443 1443 1444 1444 1445 1445 1445 1446 1446 1446 1446 1446 1446 1446 1446 1446 1446 1446 1446 1446 1445 1445 1445 1446 1446 1446 1446 1446 1446 1446 1446 1446 1446 1446 1446 1446 1445 1445 1445 1445 1444 1444 1444 1443 1443 1443 1442 1442 1442 1441 1441 1440 1440 1439 1438 1437 1437 1436 1436 1435 1434 1433 1432 1432 1431 1430
1441 1442 1442 1442 1442 1443 1443 1444 1444 1444 1445 1445 1445 1445 1446 1446 1446 1446 1446 1445 1445 1445 1445 1445 1445 1445 1445 1445 1445 1445 1446 1446 1446 1446 1446 1445 1445 1445 1445 1445 1445 1445 1444 1444 1444 1443 1443 1443 1442 1442 1442 1442 1441 1441 1440 1440 1439 1438 1437 1437 1436 1436 1435 1434 1434 1433 1432 1431 1430
1440 1441 1441 1441 1442 1442 1442 1443 1443 1443 1444 1444 1444 1445 1445 1445 1445 1445 1445 1445 1445 1445 1444 1444 1444 1444 1445 1445 1445 1445 1445 1445 1445 1445 1445 1445 1445 1445 1445 1445 1445 1444 1444 1444 1443 1443 1443 1443 1442 1442 1442 1442 1441 1441 1440 1439 1439 1438 1437 1437 1437 1436 1435 1435 1434 1433 1432 1432 1431
1439 1440 1440 1440 1441 1441 1441 1442 1442 1442 1443 1443 1444 1444 1444 1444 1444 1444 1444 1444 1444 1444 1444 1444 1444 1444 1444 1444 1444 1444 1445 1445 1445 1445 1445 1445 1445 1445 1445 1444 1444 1444 1444 1444 1443 1443 1443 1442 1442 1442 1442 1441 1441 1441 1440 1439 1439 1438 1438 1437 1437 1436 1436 1435 1434 1433 1433 1432 1431
1438 1439 1439 1439 1440 1440 1440 1441 1441 1442 1442 1442 1443 1443 1443 1443 1443 1443 1443 1443 1443 1443 1443 1443 1443 1443 1443 1444 1444 1444 1444 1444 1444 1444 1444 1444 1444 1444 1444 1444 1444 1444 1444 1443 1443 1443 1443 1442 1442 1442 1442 1441 1441 1441 1440 1440 1439 1438 1438 1437 1437 1436 1436 1435 1434 1434 1433 1432 1432
1437 1438 1438 1438 1439 1439 1439 1440 1440 1440 1441 1441 1442 1442 1442 1442 1442 1443 1443 1443 1443 1443 1443 1443 1443 1443 1443 1443 1443 1443 1444 1444 1444 1444 1444 1444 1444 1444 1444 1444 1444 1444 1444 1443 1443 1443 1443 1442 1442 1442 1442 1441 1441 1440 1440 1440 1439 1438 1438 1437 1437 1436 1436 1435 1435 1434 1433 1433 1432
1437 1437 1437 1437 1438 1438 1438 1439 1439 1439 1440 1440 1441 1441 1441 1442 1442 1442 1442 1442 1442 1442 1442 1442 1442 1442 1442 1443 1443 1443 1443 1443 1443 1443 1444 1444 1444 1444 1444 1444 1444 1443 1443 1443 1443 1443 1442 1442 1442 1442 1442 1441 1441 1440 1440 1440 1439 1439 1438 1437 1437 1437 1436 1435 1435 1434 1433 1433 1432
1436 1436 1437 1437 1437 1437 1437 1438 1438 1438 1439 1439 1440 1440 1440 1441 1441 1441 1441 1442 1442 1442 1442 1442 1442 1442 1442 1442 1442 1442 1443 1443 1443 1443 1443 1443 1443 1443 1443 1443 1443 1443 1443 1443 1443 1443 1442 1442 1442 1442 1442 1441 1441 1441 1440 1440 1439 1439 1438 1438 1437 1437 1436 1436 1435 1434 1434 1433 1432
1435 1435 1436 1436 1436 1436 1437 1437 1437 1437 1438 1438 1439 1439 1439 1440 1440 1440 1441 1441 1441 1441 1441 1441 1441 1441 1442 1442 1442 1442 1442 1442 1442 1443 1443 1443 1443 1443 1443 1443 1443 1443 1443 1443 1443 1443 1442 1442 1442 1442 1442 1442 1441 1441 1440 1440 1439 1439 1438 1438 1437 1437 1437 1436 1435 1435 1434 1433 1433
1434 1434 1435 1435 1435 1435 1436 1436 1436 1437 1437 1437 1438 1438 1438 1439 1439 1440 1440 1440 1440 1440 1441 1441 1441 1441 1441 1441 1441 1442 1442 1442 1442 1442 1442 1442 1443 1443 1443 1443 1443 1443 1443 1443 1443 1443 1443 1442 1442 1442 1442 1442 1441 1441 1441 1440 1440 1439 1439 1438 1438 1437 1437 1436 1436 1435 1434 1434 1433
1433 1433 1433 1434 1434 1434 1435 1435 1435 1436 1436 1436 1437 1437 1437 1438 1438 1439 1439 1439 1439 1440 1440 1440 1440 1440 1440 1441 1441 1441 1441 1442 1442 1442 1442 1442 1442 1442 1442 1442 1442 1443 1443 1443 1443 1443 1443 1443 1442 1442 1442 1442 1442 1441 1441 1440 1440 1439 1439 1438 1438 1437 1437 1437 1436 1436 1435 1434 1434
1432 1432 1432 1433 1433 1434 1434 1434 1435 1435 1435 1436 1436 1436 1437 1437 1437 1438 1438 1438 1439 1439 1439 1439 1440 1440 1440 1440 1440 1441 1441 1441 1441 1442 1442 1442 1442 1442 1442 1442 1442 1442 1442 1442 1443 1443 1443 1443 1442 1442 1442 1442 1442 1441 1441 1441 1440 1440 1439 1439 1438 1438 1437 1437 1437 1436 1435 1435 1434
1431 1431 1432 1432 1432 1433 1433 1433 1434 1434 1434 1435 1435 1435 1436 1436 1437 1437 1437 1437 1438 1438 1438 1439 1439 1439 1439 1439 1440 1440 1440 1441 1441 1441 1441 1441 1442 1442 1442 1442 1442 1442 1442 1442 1442 1443 1443 1443 1442 1442 1442 1442 1442 1442 1441 1441 1440 1440 1440 1439 1439 1438 1438 1437 1437 1437 1436 1435 1435
1429 1430 1430 1431 1431 1432 1432 1432 1433 1433 1433 1434 1434 1434 1435 1435 1436 1436 1436 1437 1437 1437 1437 1438 1438 1438 1439 1439 1439 1439 1440 1440 1440 1441 1441 1441 1441 1441 1442 1442 1442 1442 1442 1442 1442 1442 1442 1442 1442 1442 1442 1442 1442 1442 1441 1441 1441 1440 1440 1440 1439 1439 1438 1438 1437 1437 1437 1436 1435
1428 1428 1429 1430 1430 1431 1431 1431 1432 1432 1432 1433 1433 1433 1434 1434 1435 1435 1435 1436 1436 1437 1437 1437 1437 1438 1438 1438 1438 1439 1439 1439 1440 1440 1440 1441 1441 1441 1441 1442 1442 1442 1442 1442 1442 1442 1442 1442 1442 1442 1442 1442 1442 1442 1442 1441 1441 1441 1440 1440 1440 1439 1439 1438 1438 1437 1437 1437 1436
1426 1427 1427 1428 1429 1429 1430 1430 1431 1431 1432 1432 1432 1432 1433 1433 1434 1434 1435 1435 1435 1436 1436 1436 1437 1437 1437 1437 1438 1438 1439 1439 1439 1440 1440 1440 1440 1441 1441 1441 1441 1442 1442 1442 1442 1442 1442 1442 1442 1442 1442 1442 1442 1442 1442 1441 1441 1441 1441 1440 1440 1439 1439 1439 1438 1438 1437 1437 1437
1425 1425 1426 1427 1427 1428 1429 1429 1430 1430 1431 1431 1431 1432 1432 1432 1433 1433 1434 1434 1434 1435 1435 1436 1436 1436 1437 1437 1437 1438 1438 1438 1439 1439 1439 1440 1440 1440 1441 1441 1441 1441 1441 1442 1442 1442 1442 1442 1442 1442 1442 1442 1442 1442 1442 1441 1441 1441 1441 1440 1440 1440 1439 1439 1438 1438 1438 1437 1437
1423 1423 1424 1425 1426 1427 1427 1428 1428 1429 1429 1430 1430 1431 1431 1432 1432 1432 1433 1433 1433 1434 1434 1435 1435 1436 1436 1436 1437 1437 1437 1438 1438 1439 1439 1439 1440 1440 1440 1440 1441 1441 1441 1441 1442 1442 1442 1442 1442 1442 1442 1442 1442 1442 1442 1442 1441 1441 1441 1441 1440 1440 1439 1439 1439 1438 1438 1437 1437
1421 1422 1422 1423 1424 1425 1426 1427 1427 1428 1428 1429 1429 1430 1430 1431 1431 1432 1432 1432 1433 1433 1433 1434 1434 1435 1435 1436 1436 1436 1437 1437 1438 1438 1438 1439 1439 1439 1440 1440 1440 1441 1441 1441 1441 1442 1442 1442 1442 1442 1442 1442 1442 1442 1442 1442 1441 1441 1441 1441 1440 1440 1439 1439 1439 1438 1438 1437 1437
1419 1420 1421 1422 1423 1424 1425 1425 1426 1427 1427 1428 1428 1429 1429 1430 1430 1431 1431 1432 1432 1432 1432 1433 1433 1434 1434 1435 1435 1436 1436 1437 1437 1437 1438 1438 1439 1439 1439 1440 1440 1440 1441 1441 1441 1441 1441 1442 1442 1442 1442 1442 1442 1442 1442 1442 1441 1441 1441 1441 1440 1440 1439 1439 1439 1438 1438 1437 1437
1417 1418 1419 1420 1422 1422 1423 1424 1425 1425 1426 1427 1427 1428 1428 1429 1429 1430 1430 1431 1431 1432 1432 1432 1433 1433 1434 1434 1435 1435 1436 1436 1437 1437 1437 1438 1438 1438 1439 1439 1440 1440 1440 1441 1441 1441 1441 1441 1442 1442 1442 1442 1442 1442 1441 1441 1441 1441 1441 1441 1440 1440 1440 1439 1439 1438 1438 1438 1437
1415 1416 1417 1419 1420 1421 1422 1422 1423 1424 1425 1425 1426 1427 1427 1428 1428 1429 1429 1430 1430 1431 1431 1432 1432 1432 1433 1433 1434 1434 1435 1435 1436 1436 1437 1437 1437 1438 1438 1439 1439 1439 1440 1440 1440 1441 1441 1441 1441 1441 1441 1441 1441 1441 1441 1441 1441 1441 1441 1441 1440 1440 1440 1439 1439 1439 1438 1438 1437
1413 1414 1416 1417 1418 1419 1420 1421 1422 1422 1423 1424 1425 1426 1426 1427 1427 1428 1428 1429 1429 1430 1430 1431 1431 1432 1432 1433 1433 1434 1434 1435 1435 1436 1436 1437 1437 1437 1438 1438 1439 1439 1439 1440 1440 1440 1441 1441 1441 1441 1441 1441 1441 1441 1441 1441 1441 1441 1441 1441 1440 1440 1440 1440 1439 1439 1439 1438 1438
1411 1413 1414 1416 1417 1418 1419 1420 1421 1421 1422 1423 1424 1425 1425 1426 1427 1427 1427 1428 1429 1429 1430 1430 1431 1431 1432 1432 1432 1433 1433 1434 1435 1435 1436 1436 1437 1437 1437 1438 1438 1439 1439 1439 1440 1440 1440 1440 1441 1441 1441 1441 1441 1441 1441 1441 1441 1441 1441 1441 1441 1440 1440 1440 1440 1439 1439 1439 1438
1410 1412 1413 1414 1415 1417 1417 1418 1419 1420 1421 1422 1423 1423 1424 1425 1425 1426 1427 1427 1428 1428 1429 1429 1430 1430 1431 1431 1432 1432 1433 1433 1434 1435 1435 1436 1436 1436 1437 1437 1438 1438 1438 1439 1439 1440 1440 1440 1440 1441 1441 1441 1441 1441 1441 1441 1441 1441 1441 1441 1441 1440 1440 1440 1440 1440 1439 1439 1439
1408 1410 1412 1413 1414 1415 1416 1417 1418 1419 1420 1421 1422 1422 1423 1424 1424 1425 1426 1427 1427 1427 1428 1428 1429 1430 1430 1431 1431 1432 1432 1433 1433 1434 1434 1435 1435 1436 1436 1437 1437 1437 1438 1438 1439 1439 1439 1440 1440 1440 1440 1441 1441 1441 1441 1441 1441 1441 1441 1441 1441 1441 1440 1440 1440 1440 1440 1439 1439
1407 1409 1410 1411 1412 1414 1415 1416 1417 1418 1419 1420 1421 1421 1422 1423 1423 1424 1425 1425 1426 1427 1427 1428 1428 1429 1429 1430 1431 1431 1432 1432 1433 1433 1434 1434 1435 1435 1436 1436 1437 1437 1437 1438 1438 1439 1439 1439 1440 1440 1440 1440 1440 1441 1441 1441 1441 1441 1441 1441 1441 1441 1441 1440 1440 1440 1440 1440 1439